CW9784 Weather Reports


time (UTC)temp
C
wind
direction
speed
KPH
gust
KPH
rain 1hr
cm
rain 24hr
cm
rain mn
cm
humidity
%
barometer
mb
20220927011019 12 0.0 1.6 0.00 0.00 0.00 62 1015.3
20220927010025 12 0.0 0.0 0.00 0.00 0.00 60 1015.3
20220927005040 13 0.0 0.0 0.00 0.00 0.00 59 1015.3
20220927004020 13 0.0 3.2 0.00 0.00 0.00 58 1015.3
20220927003019 13 0.0 1.6 0.00 0.00 0.00 56 1015.2
20220927002019 14 0.0 3.2 0.00 0.00 0.00 54 1015.1
20220927001833 15 0.0 4.8 0.00 0.00 0.00 53 1015.2
20220926211018 17 338 8.0 20.9 0.00 0.00 0.00 40 1015.2
20220926210020 17 338 9.7 24.1 0.00 0.00 0.00 39 1015.2
20220926205120 17 315 8.0 19.3 0.00 0.00 0.00 40 1015.2
20220926204020 17 338 9.7 19.3 0.00 0.00 0.00 40 1015.2
20220926203059 16 293 9.7 22.5 0.00 0.00 0.00 41 1015.2
20220926202059 16 338 8.0 25.7 0.00 0.00 0.00 41 1015.3
20220926201757 16 338 9.7 22.5 0.00 0.00 0.00 44 1015.2
20220926190059 15 338 11.3 29.0 0.00 0.00 0.00 45 1015.8
20220926185022 15 293 9.7 24.1 0.00 0.00 0.00 45 1015.7
20220926184022 15 293 9.7 22.5 0.00 0.00 0.00 46 1015.8
20220926183021 15 293 6.4 17.7 0.00 0.00 0.00 50 1015.8
20220926182039 15 315 9.7 22.5 0.00 0.00 0.00 51 1016.0
20220926181759 15 338 9.7 27.4 0.00 0.00 0.00 53 1016.0
20220926171020 14 315 4.8 16.1 0.00 0.00 0.00 58 1016.3
20220926170021 14 293 11.3 24.1 0.00 0.00 0.00 57 1016.3
20220926165020 13 338 6.4 19.3 0.00 0.00 0.00 59 1016.3
20220926164020 13 270 6.4 17.7 0.00 0.00 0.00 60 1016.3
20220926163140 13 293 9.7 19.3 0.00 0.00 0.00 60 1016.4
20220926162018 13 338 9.7 22.5 0.00 0.00 0.00 59 1016.3
20220926161919 13 293 9.7 20.9 0.00 0.00 0.00 61 1016.4
20220926121019 8 338 1.6 8.0 0.00 0.00 0.00 77 1015.0
20220926120019 8 315 1.6 6.4 0.00 0.00 0.00 77 1014.8
20220926115020 8 270 1.6 12.9 0.00 0.00 0.00 76 1014.7
20220926114120 8 293 3.2 12.9 0.00 0.00 0.00 76 1014.6
20220926113019 8 315 3.2 12.9 0.00 0.00 0.00 76 1014.7
20220926112634 8 293 3.2 11.3 0.00 0.00 0.00 76 1014.6
20220926111019 8 338 3.2 14.5 0.00 0.00 0.00 76 1014.5
20220926110019 8 315 3.2 9.7 0.00 0.00 0.00 76 1014.5
20220926105040 8 293 3.2 12.9 0.00 0.00 0.00 76 1014.5
20220926104020 8 293 1.6 9.7 0.00 0.00 0.00 76 1014.5
20220926103020 8 338 1.6 9.7 0.00 0.00 0.00 76 1014.5
20220926102018 8 293 3.2 14.5 0.00 0.00 0.00 75 1014.2
20220926101810 8 293 3.2 11.3 0.00 0.00 0.00 75 1014.3
20220926091019 8 315 3.2 12.9 0.00 0.00 0.00 74 1013.9
20220926090022 8 293 3.2 16.1 0.00 0.00 0.00 74 1013.8
20220926085021 8 293 3.2 11.3 0.00 0.00 0.00 74 1013.8
20220926084100 8 293 3.2 9.7 0.00 0.00 0.00 74 1013.8
20220926083019 8 293 1.6 8.0 0.00 0.00 0.00 74 1013.9
20220926082018 8 293 1.6 9.7 0.00 0.00 0.00 74 1013.9
20220926081908 8 293 1.6 9.7 0.00 0.00 0.00 73 1013.8
20220926061020 11 315 1.6 4.8 0.00 0.00 0.00 66 1013.7
20220926060020 11 338 1.6 6.4 0.00 0.00 0.00 66 1013.6
20220926055021 11 315 1.6 6.4 0.00 0.00 0.00 65 1013.6
20220926053020 11 338 1.6 9.7 0.00 0.00 0.00 63 1013.7
20220926052019 11 0 3.2 16.1 0.00 0.00 0.00 64 1013.7
20220926051752 11 315 1.6 9.7 0.00 0.00 0.00 64 1013.7
20220926041022 12 315 1.6 6.4 0.00 0.00 0.00 65 1013.6
20220926040102 12 0.0 3.2 0.00 0.00 0.00 65 1013.6
20220926035102 12 293 1.6 6.4 0.00 0.00 0.00 63 1013.6
20220926034101 13 338 1.6 6.4 0.00 0.00 0.00 61 1013.6
20220926033022 13 315 3.2 12.9 0.00 0.00 0.00 60 1013.4
20220926032020 13 315 1.6 8.0 0.00 0.00 0.00 59 1013.4
20220926031950 13 315 3.2 16.1 0.00 0.00 0.00 59 1013.4